Location: Augustenthal
(51.7167°N, 10.2833°E)
Time: 10:45:19
(UTC+00:00)

ALOS 2 - Pass Details

Date: 29 September 2021
Orbit: 630 x 632 km, 97.9° (Epoch: 26 October)

Event Time Altitude Azimuth Distance (km) Brightness Sun altitude
Exits shadow 21:30:14 11° 11° (N) 1,988 5.6 -36.9°
Drops below altitude 10° 21:30:23 10° 9° (N) 2,034 5.7 -36.9°
Sets 21:32:55 0° 355° (N) 2,939 6.8 -37.1°
